Weather Roundup
Issued by NWS Corpus Christi, TX

Home | Current Version | Previous Version | Text Only | Print | Product List | Glossary On
Versions: 1 2 3 4 5 6 7 8 9 10 11 12 13 14 15 16 17 18 19 20 21 22 23 24 25 26 27 28 29 30 31 32 33 34 35 36 37 38 39 40 41 42 43 44 45 46 47 48 49 50
000
ASUS44 KCRP 031610
HRRCRP

SOUTH TEXAS REGIONAL WEATHER ROUNDUP
NATIONAL WEATHER SERVICE CORPUS CHRISTI TX
1100 AM CDT SUN MAY 03 2015


TXZ229>244-031700-
...CORPUS CHRISTI AREA OBSERVATIONS...

CITY           SKY/WX    TMP DP  RH WIND       PRES   REMARKS
CORPUS CHRISTI LGT RAIN  77  66  68 SE12      30.01S
NAS CORPUS CHR PTSUNNY   79  70  74 SE18G25   30.03R
ROCKPORT       PTSUNNY   78  66  66 SE15      30.03R
KINGSVILLE NAS MOSUNNY   82  70  66 SE12G21   30.01R
ALICE          MOSUNNY   81  66  60 S16       30.00S
FALFURRIAS     PTSUNNY   81  67  62 SE10G16   30.00R
$$

...VICTORIA AREA OBSERVATIONS...

CITY           SKY/WX    TMP DP  RH WIND       PRES   REMARKS
VICTORIA       MOSUNNY   80  62  54 SE14      30.04S
BEEVILLE       PTSUNNY   77  66  68 SE10G17   30.02S
PLEASANTON     MOSUNNY   78  63  60 SE10      30.03S
SAN ANTONIO    MOSUNNY   74  63  68 S12       30.04S
$$

...LAREDO AREA OBSERVATIONS...

CITY           SKY/WX    TMP DP  RH WIND       PRES   REMARKS
LAREDO         CLOUDY    76  66  71 SE16      30.01R
COTULLA        MOSUNNY   77  63  61 SE15G21   30.00S
DEL RIO        CLOUDY    66  62  87 SE10      30.00R FOG
MCALLEN        CLOUDY    82  70  66 SE16      29.98S
HEBBRONVILLE     N/A     77  65  67 SE15      30.01S
$$

...OTHER TEXAS OBSERVATIONS...

CITY           SKY/WX    TMP DP  RH WIND       PRES   REMARKS
BROWNSVILLE    CLOUDY    81  68  64 SE16G25   30.00R
HOUSTON        PTSUNNY   76  60  57 S8        30.07S
COL. STATION   MOSUNNY   74  61  63 S8        30.06S
AUSTIN         PTSUNNY   74  63  68 S10       30.04S
WACO           SUNNY     73  60  63 S12       30.04S
FORT WORTH     PTSUNNY   72  59  63 S14       30.02R
WICHITA FALLS  SUNNY     74  60  61 S13       29.98S
LUBBOCK        MOSUNNY   72  48  42 S15       29.97S
EL PASO        MOSUNNY   78  37  22 E5        29.99R
$$

...MARINE OBSERVATIONS...

STATION/POSITION TIME  SKY/WX   TEMP    WIND        PRES    VSBY  WAVE   SWELL
                                AIR SEA DIR/SP/G                  HT/PER HT/PER
                 (UTC)          (F)     (DEG/KT/KT) (MB)    (MI)  (FT/S) (FT/S)
PORT ARANSAS     1600            74 75  120/ 16/ 18 1017.4R
BUOY 90 E PORT A 1550            76 75  130/ 12/ 14 1018.0R         2/ 4
BUOY 45 SE BAFFI 1550            75 74  120/ 12/ 14 1016.4R         3/ 5
BUOY 200 E PT IS 1550            78 77  120/ 16/ 17 1017.6R         2/ 4
BUOY 15 E GALVES 1550            74 75  120/  8/ 10 1018.5R         1/ 3
$$



USA.gov is the U.S. government's official web portal to all federal, state and local government web resources and services.